User: anonymous   Login
Location: Unspecified
(0.0000°N, 0.0000°E)
Time: 22:34:25
(UTC+00:00)
Language:

Phobus Grunt - Orbit

View from above orbital plane
View from above orbital plane
View from above satellite
View from above satellite

Ground track
Ground track

The orbit is defined by the following mean orbital elements,

1 37872U 11065A   12015.69171186  .10804850  13050-4  36619-4 0  9996
2 37872 051.4132 350.1235 0009680 342.5577 017.5128 16.57963948 10968
Epoch (UTC): 15 January 2012 16:36:03
Eccentricity: 0.0009680
inclination: 51.4132°
perigee height: 112 km
apogee height: 125 km
right ascension of ascending node: 350.1235°
argument of perigee: 342.5577°
revolutions per day: 16.57963948
mean anomaly at epoch: 17.5128°

The dashed part of the orbit path shows where the satellite is in the earth's shadow,  

DLR